EJU26PJ LFRN-LFRS

Flight info

Callsign EJU26PJ
Flight time 0h 21m
Altitude 9000
Route GODAN
Aircraft A20N/M-SDE2E3FGHIRWXY/LB1

Departure

Time 2026-04-22 19:35
Airport Rennes-Saint-Jacques Airport (LFRN)

Arrival

Time 2026-04-22 19:57
Airport Nantes Atlantique Airport (LFRS)
Time Latitude Longitude Altitude Speed Heading
2026-04-22 19:16 48.06915 -1.72725 135 ft 0 kts 225°
2026-04-22 19:26 48.06926 -1.72710 135 ft 2 kts 224°
2026-04-22 19:26 48.06937 -1.72692 136 ft 2 kts 220°
2026-04-22 19:26 48.06952 -1.72685 137 ft 2 kts 185°
2026-04-22 19:26 48.06969 -1.72682 138 ft 2 kts 226°
2026-04-22 19:27 48.06972 -1.72666 138 ft 1 kts 277°
2026-04-22 19:30 48.06975 -1.72699 139 ft 10 kts 278°
2026-04-22 19:31 48.06992 -1.72854 138 ft 20 kts 281°
2026-04-22 19:31 48.07023 -1.73089 135 ft 23 kts 279°
2026-04-22 19:31 48.07054 -1.73327 134 ft 21 kts 281°
2026-04-22 19:31 48.07092 -1.73511 127 ft 13 kts 304°
2026-04-22 19:32 48.07174 -1.73578 126 ft 17 kts 338°
2026-04-22 19:32 48.07258 -1.73678 123 ft 10 kts 266°
2026-04-22 19:32 48.07257 -1.73781 122 ft 13 kts 282°
2026-04-22 19:32 48.07280 -1.73946 125 ft 20 kts 282°
2026-04-22 19:33 48.07312 -1.74175 121 ft 22 kts 282°
2026-04-22 19:33 48.07334 -1.74344 120 ft 15 kts 280°
2026-04-22 19:33 48.07349 -1.74481 115 ft 9 kts 275°
2026-04-22 19:33 48.07342 -1.74568 109 ft 3 kts 313°
2026-04-22 19:34 48.07356 -1.74552 110 ft 3 kts 64°
2026-04-22 19:34 48.07357 -1.74524 109 ft 0 kts 96°
2026-04-22 19:35 48.07292 -1.73980 121 ft 99 kts 99°
2026-04-22 19:35 48.07186 -1.73141 154 ft 145 kts 100°
2026-04-22 19:35 48.06902 -1.71120 1320 ft 146 kts 103°
2026-04-22 19:36 48.06686 -1.69665 2392 ft 144 kts 103°
2026-04-22 19:36 48.06465 -1.68124 3119 ft 162 kts 103°
2026-04-22 19:36 48.06101 -1.66451 3901 ft 178 kts 118°
2026-04-22 19:36 48.05280 -1.64952 4756 ft 199 kts 141°
2026-04-22 19:37 48.04013 -1.64035 5989 ft 207 kts 166°
2026-04-22 19:37 48.02540 -1.63817 7181 ft 224 kts 175°
2026-04-22 19:37 48.00895 -1.63682 8105 ft 250 kts 176°
2026-04-22 19:37 47.99012 -1.63517 8362 ft 285 kts 176°
2026-04-22 19:38 47.97025 -1.63327 8473 ft 286 kts 176°
2026-04-22 19:38 47.95023 -1.63124 8573 ft 291 kts 176°
2026-04-22 19:38 47.92998 -1.62915 8693 ft 291 kts 177°
2026-04-22 19:38 47.91008 -1.63297 8801 ft 291 kts 200°
2026-04-22 19:39 47.89261 -1.64843 8917 ft 294 kts 220°
2026-04-22 19:39 47.87719 -1.66806 9023 ft 290 kts 222°
2026-04-22 19:39 47.86190 -1.68792 9132 ft 293 kts 221°
2026-04-22 19:39 47.84629 -1.70718 9130 ft 291 kts 217°
2026-04-22 19:40 47.83042 -1.72582 9140 ft 291 kts 217°
2026-04-22 19:40 47.81450 -1.74466 9129 ft 292 kts 217°
2026-04-22 19:40 47.79881 -1.76368 9129 ft 290 kts 218°
2026-04-22 19:40 47.78328 -1.78285 9118 ft 288 kts 219°
2026-04-22 19:41 47.76793 -1.80196 9123 ft 288 kts 219°
2026-04-22 19:41 47.75280 -1.82089 9112 ft 289 kts 219°
2026-04-22 19:41 47.73744 -1.84014 9119 ft 288 kts 219°
2026-04-22 19:41 47.72213 -1.85932 9124 ft 288 kts 219°
2026-04-22 19:42 47.70679 -1.87852 9116 ft 288 kts 219°
2026-04-22 19:42 47.69029 -1.89516 9122 ft 289 kts 201°
2026-04-22 19:42 47.67049 -1.90006 9116 ft 292 kts 180°
2026-04-22 19:42 47.64991 -1.90012 9116 ft 291 kts 180°
2026-04-22 19:43 47.60977 -1.90004 9109 ft 291 kts 180°
2026-04-22 19:43 47.58957 -1.89995 9024 ft 290 kts 180°
2026-04-22 19:43 47.56932 -1.89985 8682 ft 290 kts 180°
2026-04-22 19:44 47.54929 -1.89979 8304 ft 285 kts 180°
2026-04-22 19:44 47.52954 -1.89985 7926 ft 283 kts 180°
2026-04-22 19:44 47.50986 -1.90006 7558 ft 283 kts 180°
2026-04-22 19:44 47.49033 -1.90051 7306 ft 276 kts 180°
2026-04-22 19:45 47.47743 -1.90084 7246 ft 282 kts 180°
2026-04-22 19:45 47.45127 -1.90140 7066 ft 279 kts 180°
2026-04-22 19:45 47.43197 -1.90190 6718 ft 277 kts 180°
2026-04-22 19:45 47.41273 -1.90237 6272 ft 276 kts 180°
2026-04-22 19:46 47.39359 -1.90300 5817 ft 274 kts 180°
2026-04-22 19:46 47.37457 -1.90375 5371 ft 273 kts 180°
2026-04-22 19:46 47.35567 -1.90439 4959 ft 270 kts 180°
2026-04-22 19:46 47.33690 -1.90514 4517 ft 269 kts 180°
2026-04-22 19:47 47.31838 -1.90620 4233 ft 261 kts 181°
2026-04-22 19:47 47.29999 -1.90725 4132 ft 269 kts 180°
2026-04-22 19:47 47.28767 -1.90800 4073 ft 266 kts 180°
2026-04-22 19:47 47.26296 -1.90956 3996 ft 265 kts 180°
2026-04-22 19:48 47.24450 -1.91071 3996 ft 266 kts 180°
2026-04-22 19:48 47.22595 -1.91192 3992 ft 267 kts 181°
2026-04-22 19:48 47.20747 -1.91308 3995 ft 266 kts 180°
2026-04-22 19:48 47.18898 -1.91427 3995 ft 266 kts 180°
2026-04-22 19:49 47.17054 -1.91547 3994 ft 264 kts 180°
2026-04-22 19:49 47.15214 -1.91663 3994 ft 267 kts 181°
2026-04-22 19:49 47.13356 -1.91771 3993 ft 267 kts 180°
2026-04-22 19:49 47.11501 -1.91883 3987 ft 266 kts 180°
2026-04-22 19:50 47.09650 -1.91991 3984 ft 266 kts 180°
2026-04-22 19:50 47.07805 -1.92094 3842 ft 264 kts 180°
2026-04-22 19:50 47.05972 -1.92208 3491 ft 263 kts 180°
2026-04-22 19:50 47.04156 -1.92335 3153 ft 258 kts 180°
2026-04-22 19:51 47.02346 -1.92492 3057 ft 266 kts 180°
2026-04-22 19:51 47.00532 -1.92628 2982 ft 258 kts 173°
2026-04-22 19:51 46.98838 -1.91929 2989 ft 252 kts 147°
2026-04-22 19:51 46.97596 -1.90215 2984 ft 245 kts 120°
2026-04-22 19:52 46.97037 -1.87885 2987 ft 243 kts 101°
2026-04-22 19:52 46.96727 -1.85457 2985 ft 243 kts 100°
2026-04-22 19:52 46.96426 -1.83036 2982 ft 241 kts 100°
2026-04-22 19:52 46.96139 -1.80609 2982 ft 243 kts 95°
2026-04-22 19:53 46.96398 -1.78181 2989 ft 245 kts 70°
2026-04-22 19:53 46.97158 -1.75985 2979 ft 244 kts 60°
2026-04-22 19:53 46.97900 -1.74685 2980 ft 249 kts 46°
2026-04-22 19:53 46.99789 -1.72819 2968 ft 233 kts 32°
2026-04-22 19:54 47.01238 -1.71743 2941 ft 235 kts 31°
2026-04-22 19:54 47.02682 -1.70689 2645 ft 229 kts 32°
2026-04-22 19:54 47.04100 -1.69641 2336 ft 225 kts 33°
2026-04-22 19:54 47.05487 -1.68586 2028 ft 224 kts 34°
2026-04-22 19:55 47.06839 -1.67560 1720 ft 208 kts 34°
2026-04-22 19:55 47.08037 -1.66651 1447 ft 180 kts 36°
2026-04-22 19:55 47.09081 -1.65854 1218 ft 159 kts 35°
2026-04-22 19:55 47.10028 -1.65128 1045 ft 145 kts 36°
2026-04-22 19:56 47.10598 -1.64695 919 ft 139 kts 36°
2026-04-22 19:56 47.11443 -1.64041 735 ft 138 kts 31°
2026-04-22 19:56 47.12412 -1.63280 530 ft 166 kts 32°
2026-04-22 19:56 47.13418 -1.62497 312 ft 155 kts 28°
2026-04-22 19:57 47.14291 -1.61850 114 ft 133 kts 29°
2026-04-22 19:57 47.14999 -1.61304 89 ft 78 kts 27°
2026-04-22 19:57 47.15284 -1.61087 89 ft 24 kts 27°
2026-04-22 19:57 47.15411 -1.61002 90 ft 24 kts 25°
2026-04-22 19:58 47.15574 -1.60876 87 ft 20 kts 28°
2026-04-22 19:58 47.15648 -1.60820 90 ft 6 kts 30°
2026-04-22 19:58 47.15676 -1.60774 85 ft 8 kts 70°
2026-04-22 19:58 47.15661 -1.60694 86 ft 8 kts 120°
2026-04-22 19:59 47.15632 -1.60631 88 ft 4 kts 125°
2026-04-22 20:00 47.15693 -1.60296 86 ft 6 kts 38°
2026-04-22 20:00 47.15707 -1.60277 84 ft 1 kts 42°
2026-04-22 20:01 47.15713 -1.60268 88 ft 0 kts 43°
2026-04-22 20:01 47.15713 -1.60269 88 ft 0 kts 43°